114  
ASUS41 KPHI 260012  
RWRPHI  
 
REGIONAL WEATHER ROUNDUP  
NATIONAL WEATHER SERVICE MOUNT HOLLY NJ  
800 PM EDT SAT JUN 25 2016  
 
NOTE: "FAIR" INDICATES FEW OR NO CLOUDS BELOW 12,000 FEET WITH NO  
SIGNIFICANT WEATHER AND/OR S TO VISIBILITY
.  
 
* = STATION DOES NOT REPORT PRECIPITATION (E.G. RAIN, SNOW, ETC.)  
OR FOG.
 
 
NJZ015>026-260100-  
SOUTHERN NEW JERSEY  
 
CITY SKY/WX TMP DP RH WIND PRES REMARKS
 
POMONA CLEAR 69 58 67 E7 30.19R  
6HR MIN TEMP: 69; 6HR MAX TEMP: 81;  
 
WILDWOOD* CLEAR 70 61 73 E6 30.20R  
MILLVILLE CLEAR 74 57 55 CALM 30.18R  
WRIGHTSTOWN CLEAR 75 52 43 E8 30.15R  
MOUNT HOLLY CLEAR 77 52 41 SE6 30.17R  
TRENTON CLEAR 79 52 38 SE9 30.16R  
6HR MIN TEMP: 79; 6HR MAX TEMP: 85;  
 

 
NJZ001>014-260100-  
NORTHERN NEW JERSEY  
 
CITY SKY/WX TMP DP RH WIND PRES REMARKS
 
SUSSEX MOCLDY 80 55 42 S6 30.17R  
ANDOVER* N/A 77 58 51 VRB5 30.17R  
MORRISTOWN CLEAR 77 50 38 S8 30.17R  
NEWARK PTCLDY 74 50 42 S8 30.18R  
TETERBORO CLEAR 76 50 40 S8 30.16R  
CALDWELL CLEAR 77 49 37 S8 30.17R  
SOMERVILLE CLEAR 79 52 38 S8 30.14R  
ALLAIRE* CLEAR 71 56 58 SE5 30.20S  
 

 
PAZ043-044-047-054-055-060>062-066>071-260100-  
EASTERN PENNSYLVANIA  
 
CITY SKY/WX TMP DP RH WIND PRES REMARKS
 
PHILADELPHIA MOCLDY 80 55 42 S10 30.17R  
6HR MIN TEMP: 80; 6HR MAX TEMP: 88;  
 
NORTH PHILA CLEAR 81 52 36 SE9 30.18R  
BLUE BELL* CLEAR 79 55 44 CALM 30.16R  
DOYLESTOWN CLEAR 77 53 43 CALM 30.16R  
QUAKERTOWN* CLEAR 82 57 42 CALM 30.18R  
PERKASIE* FAIR 75 61 60 CALM 30.18S  
POTTSTOWN CLEAR 81 54 39 S5 30.18R  
LANCASTER CLEAR 78 59 51 S5 30.17R  
COATESVILLE CLEAR 75 59 57 CALM 30.20R  
READING CLEAR 82 55 39 SW6 30.15S  
6HR MIN TEMP: 81; 6HR MAX TEMP: 86;  
 
ALLENTOWN CLEAR 84 52 33 S5 30.16R  
6HR MIN TEMP: 83; 6HR MAX TEMP: 88;  
 
MOUNT POCONO CLEAR 73 53 49 SW5 30.22S  
6HR MIN TEMP: 73; 6HR MAX TEMP: 78;  
 
HAZLETON CLEAR 73 55 53 S3 30.24R  
LEHIGHTON FAIR 75 61 60 CALM 30.17S  
WILKES BARRE PTCLDY 80 57 45 SW7 30.17R  
 

 
DEZALL-MDZ008-012-015-019-020-260100-  
DELAWARE AND EASTERN MARYLAND  
 
CITY SKY/WX TMP DP RH WIND PRES REMARKS
 
WILMINGTON CLEAR 76 58 53 S13 30.18R  
6HR MIN TEMP: 76; 6HR MAX TEMP: 85;  
 
DOVER CLEAR 74 63 68 SE7 30.17S  
GEORGETOWN CLEAR 71 62 73 SE6 30.19R  
6HR MIN TEMP: 71; 6HR MAX TEMP: 80;  
 
EASTON CLEAR 77 59 53 E6 30.22R  
PATUXENT CLEAR 77 53 43 E10 30.17S  
OCEAN CITY CLEAR 69 63 81 NE7 30.18S  
WALLOPS ISLAND FAIR 72 64 76 NE8 30.18S  
CAMBRIDGE CLEAR 73 50 43 E5 30.18S  
SALISBURY CLEAR 73 63 70 SE5 30.18R  
 

 
PAZ001-021-NYZ056-072-MDZ011-DCZ001-260100-  
OTHER NEARBY LOCATIONS  
 
CITY SKY/WX TMP DP RH WIND PRES REMARKS
 
HARRISBURG CLEAR 80 64 58 CALM 30.16R  
STATE COLLEGE CLEAR 77 61 57 S6 30.20R  
WILLIAMSPORT CLEAR 81 59 47 S6 30.14R  
BINGHAMTON CLEAR 77 52 41 SW3 30.18S  
NEW YORK CITY CLEAR 73 50 44 VRB3 30.21R  
BALTIMORE PTCLDY 79 58 48 S3 30.17S  
WASHINGTON DC FAIR 80 58 46 E8 30.17S  
 

 
 
 
CLICK HERE TO GO TO PREVIOUS BULLETINS.

The Nexlab PA Page
The Nexlab NJ Page
The Nexlab DE Page
The Nexlab MD Page Main Text Page